Flag for Switzerland Weather past 2 weeks in Chur, Graubünden, Switzerland

Now
38 °F

Chilly.


Feels Like: 35 °F
Forecast: 40 / 52 °F
Wind: 5 mph from Southwest

Location: Chur-Ems

Current Time: Dec 19, 2014 at 9:25:38 AM

Latest Report: Dec 19, 2014 at 8:00 AM


Visibility: N/A

Pressure: 30.32 "Hg

Humidity: 91%

Dew point: 36 °F

Location of ChurLocation

Historic Weather in Chur — Graph

°F

Chur temperature yesterday

Maximum temperature yesterday: 44 °F (at 9:00 PM)
Minimum temperature yesterday: 35 °F (at 5:00 AM)
Average temperature yesterday: 40 °F

Past Weeks' High & Low Weather Summary

 TemperatureHumidityPressure
High57 °F (Dec 13, 2:00 PM)97% (Dec 16, 8:00 AM)30.49 "Hg (Dec 16, 8:00 AM)
Low27 °F (Dec 10, 8:00 AM)30% (Dec 12, 3:00 PM)29.88 "Hg (Dec 4, 2:00 PM)
Average40 °F76%30.13 "Hg
* Reported Dec 4 8:00 AM — Dec 19 8:00 AM, Chur, Weather by CustomWeather, © 2014

Note: Actual official high and low records may vary slightly from our data, if they occured in-between our weather recording intervals... More about our weather records

Advertising

Chur weather history for previous 24 hours

 ConditionsComfort  
Time TempWeatherWind HumidityBarometerVisibility
8:00 AM
Dec 19
38 °FChilly.5 mph91%30.32 "HgN/A
7:00 AM39 °FFog.6 mph89%30.32 "Hg6 mi
6:00 AM38 °FChilly.5 mph91%30.32 "HgN/A
5:00 AM39 °FChilly.5 mph91%30.33 "HgN/A
3:00 AM38 °FChilly.2 mph94%30.34 "HgN/A
2:00 AM40 °FQuite cool.6 mph91%30.32 "HgN/A
1:00 AM39 °FClear.3 mph93%30.34 "Hg9 mi
12:00 AM40 °FChilly.3 mph94%30.33 "HgN/A
11:00 PM
Dec 18
42 °FQuite cool.2 mph91%30.32 "HgN/A
9:00 PM44 °FQuite cool.8 mph90%30.30 "HgN/A
8:00 PM42 °FQuite cool.2 mph94%30.28 "HgN/A
7:00 PM43 °FFog.6 mph92%30.27 "Hg3 mi
6:00 PM42 °FQuite cool.3 mph94%30.27 "HgN/A
5:00 PM42 °FQuite cool.3 mph93%30.24 "HgN/A
4:00 PM42 °FRain. Overcast.2 mph93%30.24 "Hg3 mi
3:00 PM43 °FQuite cool.3 mph88%30.21 "HgN/A
2:00 PM42 °FQuite cool.5 mph84%30.22 "HgN/A
1:00 PM42 °FFog.6 mph79%30.22 "Hg9 mi
12:00 PM42 °FQuite cool.6 mph79%30.22 "HgN/A
11:00 AM41 °FQuite cool.6 mph79%30.22 "HgN/A
10:00 AM40 °FOvercast.5 mph83%30.21 "Hg11 mi
9:00 AM37 °FChilly.5 mph87%30.22 "HgN/A
Weather by CustomWeather, © 2014

See weather overviewHow to use our weather pages